Location: Bay Ridge
(40.6340°N, 74.0146°W)
Time: 22:16:45
(UTC+00:00)

In-Cosmos 22 Rocket - Pass Details

Date: 15 November 2019
Orbit: 791 x 887 km, 81.2° (Epoch: 14 December)

Event Time Altitude Azimuth Distance (km) Brightness Sun altitude
Rises 09:49:44 0° 183° (S) 3,279 7.3 -21.4°
Reaches altitude 10° 09:52:05 10° 182° (S) 2,359 6.6 -20.9°
Maximum altitude 09:57:23 77° 97° (E) 830 4.2 -19.9°
Drops below altitude 10° 10:02:51 10° 12° (NNE) 2,424 6.6 -18.9°
Sets 10:05:17 0° 12° (NNE) 3,375 7.4 -18.5°
